COSMOS 2251 DEB, 33983

Orbit data source: Space-Track

COSMOS 2251 DEB, 33983 is space debris in LEO originally from a launch on Wed, 16 Jun 1993 UTC launched from the Plesetsk Missile And Space Complex (PKMTR). The debris from Iridium 33, an American commercial communications satellite, has been tracked extensively since its accidental collision with the defunct Russian satellite Cosmos 2251 in 2009. This event, occurring at high speed in low Earth orbit (LEO), generated thousands of pieces of space debris, significantly increasing the risk of further collisions. The Iridium 33 debris cloud has impacted space traffic management and orbital debris mitigation strategies, making it a subject of ongoing study in space situational awareness.

Loading next visibility...
Identifier
33983, 1993-036FS
Orbit
LEO
Country
Flag of CISCIS
Related business
Manufacturer
Unknown
Mission
Spacecraft
Bus & Motor
Unknown
Mass
Unknown
Launch date (UTC)
1993-06-16 (33 years ago)
Launch vehicle
Unknown
Launch site
Plesetsk Missile And Space Complex (PKMTR)
Object type
Payload
Rocket body
Debris
Shape & HBR
Unknown shape, 0.2 m
Radar Cross Section
Medium (>0.1 m² and <1 m²)

Expand to show TLE details & history
Last TLE update: 5 hours ago

TLE from 5 hours ago
0 COSMOS 2251 DEB
1 33983U 93036FS  26238.46939535  .00001252  00000-0  31918-3 0  9997
2 33983  74.0503  24.4623 0020233  60.0675 356.4171 14.51503654923535
Epoch: 2026-08-26T11:15Z
TLE epoch observation values (Epoch: 2026-08-26T11:15:55.758Z)
Latitude
53.38387°
Longitude
-96.75131°
Altitude
714.796 km
Speed
7.511 km/s
True Right ascension
03h 07m 48s
True Declination
53° 13' 05"
Sunlit
Object was in daylight at epoch
Visualization orbit readout
Latitude
Unknown
Longitude
Unknown
Altitude
Unknown
Speed
Unknown
Apparent Right ascension
Unknown
Apparent Declination
Unknown
Sunlit
N/A
Visualization observer readout
Local Sidereal Time
07:33:07
Azimuth
Unknown
Elevation
Unknown
Doppler factor
Unknown
Orbital elements
Apogee altitude
732.706 km
Perigee altitude
703.989 km
Semi-major axis
7,096.484 km
Eccentricity
0.00202
Inclination
74.0503°
RAAN
24.4623°
Arg. of periapsis
60.0675°
True anomaly
356.40257°
Mean anomaly
356.4171°
Eccentric anomaly
356.40984°
Mean motion
3.6306 °/min
Orbital period
99.16 mins
BSTAR
0.00031918

Documentation

Showing up to 5 results
|